Location: Andershausen
(51.8462°N, 9.8595°E)
Time: 09:12:39
(UTC+00:00)

SJ-6F - Pass Details

Date: 18 November 2025
Orbit: 543 x 570 km, 97.9° (Epoch: 11 December)

Event Time Altitude Azimuth Distance (km) Brightness Sun altitude
Rises 16:59:47 0° 164° (SSE) 2,696 7.8 -14.2°
Reaches altitude 10° 17:01:53 10° 165° (SSE) 1,808 6.9 -14.5°
Maximum altitude 17:05:48 88° 258° (WSW) 553 4.3 -15.1°
Drops below altitude 10° 17:09:46 10° 345° (NNW) 1,829 7.0 -15.7°
Sets 17:11:54 0° 346° (NNW) 2,731 7.9 -16.1°
